| time (UTC) | temp C | wind direction | speed KPH | gust KPH | rain 1hr cm | rain 24hr cm | rain mn cm | humidity % | barometer mb |
| 20260510153909 | 17 | 321 | 1.6 | 1.6 | 0.00 | 0.00 | 0.00 | 38 | 1021.9 |
| 20260510153406 | 16 | 249 | 3.2 | 8.0 | 0.00 | 0.00 | 0.00 | 37 | 1022.0 |
| 20260510152902 | 16 | 292 | 0.0 | 3.2 | 0.00 | 0.00 | 0.00 | 36 | 1021.8 |
| 20260510152400 | 16 | 251 | 3.2 | 4.8 | 0.00 | 0.00 | 0.00 | 36 | 1021.7 |
| 20260510151855 | 16 | 283 | 0.0 | 3.2 | 0.00 | 0.00 | 0.00 | 38 | 1021.5 |
| 20260510151354 | 15 | 329 | 3.2 | 9.7 | 0.00 | 0.00 | 0.00 | 40 | 1021.5 |
| 20260510150850 | 15 | 304 | 1.6 | 1.6 | 0.00 | 0.00 | 0.00 | 36 | 1021.4 |
| 20260510150345 | 15 | 260 | 1.6 | 3.2 | 0.00 | 0.00 | 0.00 | 38 | 1021.5 |
| 20260510145841 | 15 | 330 | 3.2 | 4.8 | 0.00 | 0.00 | 0.00 | 40 | 1021.4 |
| 20260510145338 | 14 | 348 | 1.6 | 3.2 | 0.00 | 0.00 | 0.00 | 40 | 1021.2 |
| 20260510144835 | 14 | 4 | 3.2 | 8.0 | 0.00 | 0.00 | 0.00 | 42 | 1021.1 |
| 20260510144331 | 15 | 325 | 1.6 | 1.6 | 0.00 | 0.00 | 0.00 | 41 | 1021.1 |
| 20260510143831 | 13 | 330 | 0.0 | 3.2 | 0.00 | 0.00 | 0.00 | 42 | 1021.2 |
| 20260510143327 | 14 | 319 | 3.2 | 4.8 | 0.00 | 0.00 | 0.00 | 42 | 1021.1 |
| 20260510142825 | 13 | 339 | 0.0 | 1.6 | 0.00 | 0.00 | 0.00 | 44 | 1020.8 |
| 20260510142321 | 13 | 345 | 0.0 | 1.6 | 0.00 | 0.00 | 0.00 | 44 | 1021.1 |
| 20260510141818 | 13 | 311 | 1.6 | 3.2 | 0.00 | 0.00 | 0.00 | 45 | 1021.2 |
| 20260510141316 | 12 | 296 | 1.6 | 3.2 | 0.00 | 0.00 | 0.00 | 48 | 1021.1 |
| 20260510140813 | 12 | 240 | 1.6 | 4.8 | 0.00 | 0.00 | 0.00 | 48 | 1020.7 |
| 20260510140308 | 13 | 292 | 0.0 | 1.6 | 0.00 | 0.00 | 0.00 | 47 | 1020.9 |
| 20260510135802 | 12 | 331 | 1.6 | 3.2 | 0.00 | 0.00 | 0.00 | 46 | 1020.8 |
| 20260510135258 | 11 | 323 | 0.0 | 1.6 | 0.00 | 0.00 | 0.00 | 49 | 1020.9 |
| 20260510134756 | 12 | 296 | 3.2 | 3.2 | 0.00 | 0.00 | 0.00 | 49 | 1020.5 |
| 20260510134253 | 11 | 296 | 4.8 | 4.8 | 0.00 | 0.00 | 0.00 | 51 | 1020.8 |
| 20260510133748 | 11 | 279 | 1.6 | 4.8 | 0.00 | 0.00 | 0.00 | 51 | 1020.7 |
| 20260510133244 | 11 | 299 | 1.6 | 3.2 | 0.00 | 0.00 | 0.00 | 52 | 1020.8 |
| 20260510132740 | 11 | 302 | 1.6 | 3.2 | 0.00 | 0.00 | 0.00 | 53 | 1020.7 |
| 20260510132238 | 11 | 283 | 1.6 | 1.6 | 0.00 | 0.00 | 0.00 | 51 | 1020.7 |
| 20260510131734 | 10 | 280 | 0.0 | 3.2 | 0.00 | 0.00 | 0.00 | 52 | 1020.5 |
| 20260510131233 | 10 | 279 | 1.6 | 3.2 | 0.00 | 0.00 | 0.00 | 55 | 1020.7 |
| 20260510130729 | 10 | 278 | 0.0 | 0.0 | 0.00 | 0.00 | 0.00 | 59 | 1020.7 |
| 20260510130226 | 10 | 279 | 0.0 | 1.6 | 0.00 | 0.00 | 0.00 | 59 | 1020.7 |
| 20260510125722 | 9 | 277 | 1.6 | 1.6 | 0.00 | 0.00 | 0.00 | 56 | 1020.6 |
| 20260510125218 | 8 | 286 | 1.6 | 1.6 | 0.00 | 0.00 | 0.00 | 59 | 1020.5 |
| 20260510124715 | 8 | 286 | 1.6 | 3.2 | 0.00 | 0.00 | 0.00 | 60 | 1020.4 |
| 20260510124213 | 8 | 289 | 1.6 | 4.8 | 0.00 | 0.00 | 0.00 | 60 | 1020.3 |
| 20260510123708 | 8 | 291 | 0.0 | 1.6 | 0.00 | 0.00 | 0.00 | 62 | 1020.6 |
| 20260510123204 | 7 | 285 | 1.6 | 3.2 | 0.00 | 0.00 | 0.00 | 62 | 1020.6 |
| 20260510122701 | 7 | 299 | 0.0 | 3.2 | 0.00 | 0.00 | 0.00 | 64 | 1020.4 |
| 20260510122157 | 7 | 299 | 1.6 | 3.2 | 0.00 | 0.00 | 0.00 | 64 | 1020.3 |
| 20260510121653 | 7 | 301 | 1.6 | 3.2 | 0.00 | 0.00 | 0.00 | 63 | 1020.2 |
| 20260510121150 | 6 | 301 | 3.2 | 3.2 | 0.00 | 0.00 | 0.00 | 64 | 1020.1 |
| 20260510120647 | 6 | 300 | 0.0 | 1.6 | 0.00 | 0.00 | 0.00 | 66 | 1020.1 |
| 20260510120143 | 6 | 300 | 0.0 | 1.6 | 0.00 | 0.00 | 0.00 | 67 | 1019.9 |
| 20260510115639 | 6 | 300 | 1.6 | 1.6 | 0.00 | 0.00 | 0.00 | 67 | 1019.9 |
| 20260510115138 | 5 | 301 | 1.6 | 1.6 | 0.00 | 0.00 | 0.00 | 69 | 1020.0 |
| 20260510114633 | 5 | 301 | 0.0 | 0.0 | 0.00 | 0.00 | 0.00 | 69 | 1019.9 |
| 20260510114129 | 5 | 301 | 0.0 | 1.6 | 0.00 | 0.00 | 0.00 | 68 | 1019.7 |
| 20260510113625 | 5 | 302 | 0.0 | 0.0 | 0.00 | 0.00 | 0.00 | 67 | 1019.8 |
| 20260510113122 | 5 | 305 | 0.0 | 1.6 | 0.00 | 0.00 | 0.00 | 68 | 1019.8 |
| 20260510112619 | 5 | 313 | 1.6 | 1.6 | 0.00 | 0.00 | 0.00 | 69 | 1019.8 |
| 20260510112115 | 5 | 313 | 0.0 | 1.6 | 0.00 | 0.00 | 0.00 | 70 | 1019.7 |
| 20260510111612 | 5 | 313 | 0.0 | 1.6 | 0.00 | 0.00 | 0.00 | 71 | 1019.8 |
| 20260510111108 | 5 | 314 | 0.0 | 1.6 | 0.00 | 0.00 | 0.00 | 71 | 1019.5 |
| 20260510110604 | 5 | 313 | 1.6 | 3.2 | 0.00 | 0.00 | 0.00 | 69 | 1019.3 |
| 20260510110100 | 5 | 313 | 1.6 | 1.6 | 0.00 | 0.00 | 0.00 | 69 | 1019.3 |
| 20260510105556 | 5 | 313 | 1.6 | 1.6 | 0.00 | 0.00 | 0.00 | 70 | 1019.4 |
| 20260510105051 | 5 | 313 | 0.0 | 1.6 | 0.00 | 0.00 | 0.00 | 68 | 1019.4 |
| 20260510104548 | 5 | 312 | 1.6 | 3.2 | 0.00 | 0.00 | 0.00 | 67 | 1019.4 |
| 20260510104044 | 5 | 314 | 0.0 | 1.6 | 0.00 | 0.00 | 0.00 | 68 | 1019.3 |
| 20260510103542 | 5 | 301 | 0.0 | 1.6 | 0.00 | 0.00 | 0.00 | 67 | 1019.2 |
| 20260510103038 | 5 | 301 | 0.0 | 1.6 | 0.00 | 0.00 | 0.00 | 66 | 1019.0 |
| 20260510102533 | 5 | 301 | 0.0 | 1.6 | 0.00 | 0.00 | 0.00 | 65 | 1019.1 |
| 20260510102030 | 5 | 301 | 0.0 | 1.6 | 0.00 | 0.00 | 0.00 | 66 | 1019.0 |
| 20260510101527 | 5 | 301 | 0.0 | 1.6 | 0.00 | 0.00 | 0.00 | 65 | 1018.9 |
| 20260510101026 | 6 | 300 | 1.6 | 3.2 | 0.00 | 0.00 | 0.00 | 64 | 1018.9 |
| 20260510100522 | 6 | 298 | 1.6 | 3.2 | 0.00 | 0.00 | 0.00 | 62 | 1018.9 |
| 20260510100019 | 6 | 297 | 1.6 | 3.2 | 0.00 | 0.00 | 0.00 | 61 | 1018.8 |
| 20260510095514 | 6 | 297 | 0.0 | 1.6 | 0.00 | 0.00 | 0.00 | 60 | 1018.7 |
| 20260510095014 | 6 | 296 | 1.6 | 1.6 | 0.00 | 0.00 | 0.00 | 58 | 1018.8 |
| 20260510094508 | 6 | 297 | 0.0 | 1.6 | 0.00 | 0.00 | 0.00 | 58 | 1018.6 |
| 20260510094004 | 6 | 297 | 1.6 | 1.6 | 0.00 | 0.00 | 0.00 | 57 | 1018.5 |
| 20260510093500 | 6 | 296 | 1.6 | 1.6 | 0.00 | 0.00 | 0.00 | 57 | 1018.5 |
| 20260510092957 | 6 | 296 | 0.0 | 3.2 | 0.00 | 0.00 | 0.00 | 57 | 1018.7 |
| 20260510092454 | 7 | 296 | 1.6 | 1.6 | 0.00 | 0.00 | 0.00 | 56 | 1018.6 |
| 20260510091948 | 7 | 296 | 1.6 | 1.6 | 0.00 | 0.00 | 0.00 | 55 | 1018.5 |
| 20260510091446 | 7 | 294 | 1.6 | 3.2 | 0.00 | 0.00 | 0.00 | 54 | 1018.4 |
| 20260510090942 | 7 | 300 | 1.6 | 1.6 | 0.00 | 0.00 | 0.00 | 55 | 1018.5 |
| 20260510090439 | 7 | 303 | 1.6 | 1.6 | 0.00 | 0.00 | 0.00 | 55 | 1018.5 |
| 20260510085934 | 7 | 304 | 0.0 | 1.6 | 0.00 | 0.00 | 0.00 | 52 | 1018.3 |
| 20260510085430 | 7 | 310 | 1.6 | 1.6 | 0.00 | 0.00 | 0.00 | 52 | 1018.4 |
| 20260510084925 | 7 | 324 | 1.6 | 1.6 | 0.00 | 0.00 | 0.00 | 52 | 1018.4 |
| 20260510084423 | 7 | 344 | 1.6 | 1.6 | 0.00 | 0.00 | 0.00 | 52 | 1018.4 |
| 20260510083920 | 7 | 345 | 0.0 | 0.0 | 0.00 | 0.00 | 0.00 | 50 | 1018.3 |
| 20260510083416 | 7 | 347 | 0.0 | 1.6 | 0.00 | 0.00 | 0.00 | 51 | 1018.3 |
| 20260510082911 | 8 | 347 | 1.6 | 3.2 | 0.00 | 0.00 | 0.00 | 50 | 1018.2 |
| 20260510082409 | 8 | 347 | 3.2 | 8.0 | 0.00 | 0.00 | 0.00 | 50 | 1018.1 |
| 20260510081908 | 8 | 338 | 1.6 | 4.8 | 0.00 | 0.00 | 0.00 | 49 | 1017.9 |
| 20260510081403 | 8 | 337 | 3.2 | 3.2 | 0.00 | 0.00 | 0.00 | 48 | 1018.1 |
| 20260510080900 | 8 | 334 | 1.6 | 1.6 | 0.00 | 0.00 | 0.00 | 50 | 1018.0 |
| 20260510080354 | 8 | 336 | 4.8 | 8.0 | 0.00 | 0.00 | 0.00 | 49 | 1018.0 |
| 20260510075852 | 7 | 338 | 1.6 | 3.2 | 0.00 | 0.00 | 0.00 | 51 | 1018.0 |
| 20260510075350 | 8 | 343 | 1.6 | 4.8 | 0.00 | 0.00 | 0.00 | 52 | 1017.8 |
| 20260510074845 | 8 | 310 | 0.0 | 0.0 | 0.00 | 0.00 | 0.00 | 48 | 1018.0 |
| 20260510074343 | 7 | 305 | 1.6 | 1.6 | 0.00 | 0.00 | 0.00 | 49 | 1017.8 |
| 20260510073839 | 8 | 303 | 0.0 | 0.0 | 0.00 | 0.00 | 0.00 | 48 | 1017.6 |
| 20260510073335 | 8 | 302 | 0.0 | 0.0 | 0.00 | 0.00 | 0.00 | 46 | 1017.6 |
| 20260510072831 | 9 | 302 | 0.0 | 0.0 | 0.00 | 0.00 | 0.00 | 45 | 1017.7 |
| 20260510072328 | 9 | 302 | 0.0 | 0.0 | 0.00 | 0.00 | 0.00 | 43 | 1017.5 |
| 20260510071819 | 10 | 307 | 0.0 | 1.6 | 0.00 | 0.00 | 0.00 | 44 | 1017.7 |
| 20260510071315 | 10 | 323 | 0.0 | 1.6 | 0.00 | 0.00 | 0.00 | 43 | 1017.3 |
| 20260510070814 | 10 | 323 | 0.0 | 0.0 | 0.00 | 0.00 | 0.00 | 43 | 1017.5 |
| 20260510070305 | 10 | 323 | 0.0 | 0.0 | 0.00 | 0.00 | 0.00 | 43 | 1017.1 |
| 20260510065805 | 10 | 324 | 1.6 | 1.6 | 0.00 | 0.00 | 0.00 | 41 | 1017.2 |
| 20260510065306 | 10 | 327 | 3.2 | 3.2 | 0.00 | 0.00 | 0.00 | 41 | 1016.9 |
| 20260510064758 | 10 | 325 | 1.6 | 3.2 | 0.00 | 0.00 | 0.00 | 41 | 1016.5 |
| 20260510064257 | 10 | 334 | 1.6 | 3.2 | 0.00 | 0.00 | 0.00 | 42 | 1016.7 |
| 20260510063752 | 10 | 331 | 3.2 | 4.8 | 0.00 | 0.00 | 0.00 | 41 | 1016.8 |
| 20260510063248 | 10 | 333 | 1.6 | 3.2 | 0.00 | 0.00 | 0.00 | 42 | 1016.7 |
| 20260510062745 | 11 | 335 | 1.6 | 3.2 | 0.00 | 0.00 | 0.00 | 41 | 1016.8 |
| 20260510062241 | 11 | 340 | 3.2 | 4.8 | 0.00 | 0.00 | 0.00 | 41 | 1016.5 |
| 20260510061736 | 11 | 343 | 3.2 | 8.0 | 0.00 | 0.00 | 0.00 | 40 | 1016.6 |
| 20260510061234 | 11 | 353 | 4.8 | 9.7 | 0.00 | 0.00 | 0.00 | 41 | 1016.5 |
| 20260510060730 | 11 | 6 | 4.8 | 9.7 | 0.00 | 0.00 | 0.00 | 40 | 1016.5 |
| 20260510060227 | 11 | 4 | 3.2 | 8.0 | 0.00 | 0.00 | 0.00 | 41 | 1016.3 |
| 20260510055723 | 11 | 354 | 6.4 | 9.7 | 0.00 | 0.00 | 0.00 | 40 | 1016.4 |
| 20260510055221 | 11 | 15 | 4.8 | 11.3 | 0.00 | 0.00 | 0.00 | 39 | 1015.9 |
| 20260510054716 | 12 | 11 | 4.8 | 12.9 | 0.00 | 0.00 | 0.00 | 38 | 1016.1 |
| 20260510054212 | 12 | 20 | 8.0 | 11.3 | 0.00 | 0.00 | 0.00 | 38 | 1015.9 |
| 20260510053711 | 12 | 25 | 6.4 | 12.9 | 0.00 | 0.00 | 0.00 | 38 | 1015.8 |
| 20260510053208 | 12 | 15 | 8.0 | 17.7 | 0.00 | 0.00 | 0.00 | 37 | 1015.8 |
| 20260510052704 | 12 | 18 | 11.3 | 16.1 | 0.00 | 0.00 | 0.00 | 37 | 1015.6 |
| 20260510052200 | 12 | 7 | 12.9 | 16.1 | 0.00 | 0.00 | 0.00 | 37 | 1015.6 |
| 20260510051656 | 12 | 3 | 14.5 | 17.7 | 0.00 | 0.00 | 0.00 | 37 | 1015.5 |
| 20260510051153 | 12 | 37 | 11.3 | 14.5 | 0.00 | 0.00 | 0.00 | 36 | 1015.5 |
| 20260510050650 | 12 | 358 | 12.9 | 20.9 | 0.00 | 0.00 | 0.00 | 37 | 1015.3 |
| 20260510050147 | 13 | 44 | 9.7 | 12.9 | 0.00 | 0.00 | 0.00 | 37 | 1015.3 |
| 20260510045644 | 12 | 349 | 9.7 | 14.5 | 0.00 | 0.00 | 0.00 | 37 | 1015.3 |
| 20260510045141 | 13 | 26 | 4.8 | 17.7 | 0.00 | 0.00 | 0.00 | 37 | 1015.2 |
| 20260510044636 | 13 | 27 | 11.3 | 16.1 | 0.00 | 0.00 | 0.00 | 37 | 1015.1 |
| 20260510044134 | 13 | 20 | 14.5 | 14.5 | 0.00 | 0.00 | 0.00 | 37 | 1015.3 |
| 20260510043630 | 13 | 329 | 11.3 | 14.5 | 0.00 | 0.00 | 0.00 | 38 | 1015.3 |
| 20260510043126 | 13 | 12 | 11.3 | 17.7 | 0.00 | 0.00 | 0.00 | 37 | 1015.2 |
| 20260510042624 | 13 | 10 | 9.7 | 12.9 | 0.00 | 0.00 | 0.00 | 38 | 1015.2 |
| 20260510042120 | 13 | 347 | 6.4 | 14.5 | 0.00 | 0.00 | 0.00 | 37 | 1015.1 |
| 20260510041617 | 13 | 17 | 9.7 | 12.9 | 0.00 | 0.00 | 0.00 | 39 | 1015.1 |
| 20260510041114 | 13 | 10 | 6.4 | 11.3 | 0.00 | 0.00 | 0.00 | 40 | 1014.9 |
| 20260510040611 | 13 | 340 | 4.8 | 12.9 | 0.00 | 0.00 | 0.00 | 40 | 1014.9 |
| 20260510040108 | 13 | 6 | 9.7 | 12.9 | 0.00 | 0.00 | 0.00 | 40 | 1014.8 |
| 20260510035604 | 13 | 355 | 8.0 | 9.7 | 0.00 | 0.00 | 0.00 | 40 | 1014.8 |
| 20260510035058 | 13 | 348 | 6.4 | 8.0 | 0.00 | 0.00 | 0.00 | 41 | 1014.5 |
| 20260510034556 | 13 | 25 | 8.0 | 14.5 | 0.00 | 0.00 | 0.00 | 39 | 1014.7 |
| 20260510034053 | 14 | 331 | 4.8 | 12.9 | 0.00 | 0.00 | 0.00 | 39 | 1014.5 |
| 20260510033549 | 14 | 4 | 6.4 | 14.5 | 0.00 | 0.00 | 0.00 | 40 | 1014.7 |
| 20260510033047 | 14 | 10 | 4.8 | 9.7 | 0.00 | 0.00 | 0.00 | 39 | 1014.6 |
| 20260510032543 | 14 | 0 | 4.8 | 8.0 | 0.00 | 0.00 | 0.00 | 40 | 1014.7 |
| 20260510032038 | 14 | 341 | 4.8 | 8.0 | 0.00 | 0.00 | 0.00 | 40 | 1014.3 |
| 20260510031533 | 14 | 8 | 4.8 | 8.0 | 0.00 | 0.00 | 0.00 | 40 | 1014.1 |
| 20260510031029 | 15 | 358 | 3.2 | 4.8 | 0.00 | 0.00 | 0.00 | 39 | 1014.2 |
| 20260510030526 | 15 | 345 | 4.8 | 11.3 | 0.00 | 0.00 | 0.00 | 38 | 1014.1 |
| 20260510030023 | 15 | 5 | 4.8 | 14.5 | 0.00 | 0.00 | 0.00 | 37 | 1014.1 |
| 20260510025520 | 15 | 15 | 11.3 | 11.3 | 0.00 | 0.00 | 0.00 | 38 | 1013.6 |
| 20260510025018 | 15 | 1 | 4.8 | 9.7 | 0.00 | 0.00 | 0.00 | 39 | 1013.7 |
| 20260510024514 | 15 | 342 | 4.8 | 11.3 | 0.00 | 0.00 | 0.00 | 39 | 1013.5 |
| 20260510024009 | 15 | 18 | 6.4 | 12.9 | 0.00 | 0.00 | 0.00 | 38 | 1013.5 |
| 20260510023500 | 16 | 6 | 4.8 | 9.7 | 0.00 | 0.00 | 0.00 | 37 | 1013.4 |
| 20260510022958 | 16 | 343 | 4.8 | 11.3 | 0.00 | 0.00 | 0.00 | 38 | 1013.5 |
| 20260510022457 | 16 | 23 | 16.1 | 20.9 | 0.00 | 0.00 | 0.00 | 37 | 1013.0 |
| 20260510021956 | 16 | 22 | 6.4 | 14.5 | 0.00 | 0.00 | 0.00 | 38 | 1013.1 |
| 20260510021454 | 16 | 338 | 11.3 | 14.5 | 0.00 | 0.00 | 0.00 | 37 | 1012.9 |
| 20260510020950 | 16 | 306 | 12.9 | 16.1 | 0.00 | 0.00 | 0.00 | 37 | 1012.7 |
| 20260510020445 | 16 | 342 | 12.9 | 14.5 | 0.00 | 0.00 | 0.00 | 39 | 1012.4 |
| 20260510015941 | 16 | 345 | 6.4 | 9.7 | 0.00 | 0.00 | 0.00 | 40 | 1012.4 |
| 20260510015437 | 16 | 359 | 8.0 | 9.7 | 0.00 | 0.00 | 0.00 | 40 | 1012.3 |
| 20260510014932 | 16 | 331 | 4.8 | 11.3 | 0.00 | 0.00 | 0.00 | 41 | 1012.2 |
| 20260510014430 | 16 | 358 | 6.4 | 11.3 | 0.00 | 0.00 | 0.00 | 40 | 1012.2 |
| 20260510013926 | 16 | 347 | 4.8 | 8.0 | 0.00 | 0.00 | 0.00 | 39 | 1011.9 |
| 20260510013421 | 16 | 347 | 4.8 | 9.7 | 0.00 | 0.00 | 0.00 | 39 | 1012.0 |
| 20260510012917 | 17 | 9 | 6.4 | 9.7 | 0.00 | 0.00 | 0.00 | 38 | 1011.8 |
| 20260510012412 | 17 | 351 | 6.4 | 12.9 | 0.00 | 0.00 | 0.00 | 38 | 1011.7 |
| 20260510011906 | 17 | 0 | 8.0 | 16.1 | 0.00 | 0.00 | 0.00 | 38 | 1011.5 |
| 20260510011401 | 17 | 333 | 8.0 | 9.7 | 0.00 | 0.00 | 0.00 | 38 | 1011.8 |
| 20260510010858 | 17 | 356 | 6.4 | 8.0 | 0.00 | 0.00 | 0.00 | 37 | 1011.5 |
| 20260510010350 | 18 | 344 | 4.8 | 9.7 | 0.00 | 0.00 | 0.00 | 36 | 1011.4 |
| 20260510005846 | 18 | 58 | 6.4 | 11.3 | 0.00 | 0.00 | 0.00 | 37 | 1011.5 |
| 20260510005343 | 18 | 331 | 8.0 | 14.5 | 0.00 | 0.00 | 0.00 | 36 | 1011.3 |
| 20260510004840 | 18 | 1 | 16.1 | 20.9 | 0.00 | 0.00 | 0.00 | 36 | 1011.2 |
| 20260510004338 | 18 | 1 | 8.0 | 14.5 | 0.00 | 0.00 | 0.00 | 37 | 1011.3 |
| 20260510003836 | 19 | 7 | 14.5 | 24.1 | 0.00 | 0.00 | 0.00 | 35 | 1011.2 |
| 20260510003332 | 19 | 331 | 16.1 | 25.7 | 0.00 | 0.00 | 0.00 | 35 | 1010.9 |
| 20260510002831 | 19 | 8 | 8.0 | 17.7 | 0.00 | 0.00 | 0.00 | 37 | 1010.8 |
| 20260510002328 | 20 | 357 | 6.4 | 12.9 | 0.00 | 0.00 | 0.00 | 37 | 1010.5 |
| 20260510001825 | 20 | 348 | 14.5 | 16.1 | 0.00 | 0.00 | 0.00 | 35 | 1010.6 |
| 20260510001323 | 20 | 8 | 14.5 | 20.9 | 0.00 | 0.00 | 0.00 | 36 | 1010.6 |
| 20260510000819 | 20 | 10 | 8.0 | 12.9 | 0.00 | 0.00 | 0.00 | 36 | 1010.5 |
| 20260510000318 | 20 | 3 | 11.3 | 12.9 | 0.00 | 0.00 | 0.00 | 36 | 1010.5 |
| 20260509235813 | 20 | 25 | 8.0 | 16.1 | 0.00 | 0.00 | 0.00 | 36 | 1010.5 |
| 20260509235310 | 20 | 26 | 12.9 | 24.1 | 0.00 | 0.00 | 0.00 | 36 | 1010.2 |
| 20260509234805 | 20 | 341 | 8.0 | 14.5 | 0.00 | 0.00 | 0.00 | 35 | 1010.4 |
| 20260509234302 | 20 | 343 | 11.3 | 16.1 | 0.00 | 0.00 | 0.00 | 36 | 1010.4 |
| 20260509233801 | 20 | 37 | 12.9 | 17.7 | 0.00 | 0.00 | 0.00 | 35 | 1010.2 |
| 20260509233258 | 20 | 15 | 8.0 | 12.9 | 0.00 | 0.00 | 0.00 | 39 | 1010.4 |
| 20260509232754 | 20 | 346 | 9.7 | 17.7 | 0.00 | 0.00 | 0.00 | 38 | 1010.2 |
| 20260509232251 | 20 | 349 | 11.3 | 17.7 | 0.00 | 0.00 | 0.00 | 40 | 1010.2 |
| 20260509231747 | 20 | 353 | 8.0 | 11.3 | 0.00 | 0.00 | 0.00 | 41 | 1010.0 |
| 20260509231244 | 20 | 43 | 4.8 | 16.1 | 0.00 | 0.00 | 0.00 | 41 | 1010.2 |
| 20260509230742 | 20 | 36 | 4.8 | 12.9 | 0.00 | 0.00 | 0.00 | 43 | 1009.9 |
| 20260509230239 | 20 | 36 | 12.9 | 17.7 | 0.00 | 0.00 | 0.00 | 43 | 1009.9 |
| 20260509225734 | 20 | 354 | 14.5 | 16.1 | 0.00 | 0.00 | 0.00 | 44 | 1009.8 |
| 20260509225230 | 20 | 339 | 8.0 | 16.1 | 0.00 | 0.00 | 0.00 | 45 | 1009.7 |
| 20260509224726 | 20 | 30 | 6.4 | 17.7 | 0.00 | 0.00 | 0.00 | 44 | 1009.6 |
| 20260509224224 | 20 | 278 | 11.3 | 14.5 | 0.00 | 0.00 | 0.00 | 42 | 1009.2 |
| 20260509223720 | 20 | 23 | 9.7 | 17.7 | 0.00 | 0.00 | 0.00 | 45 | 1009.5 |
| 20260509223217 | 20 | 343 | 6.4 | 16.1 | 0.00 | 0.00 | 0.00 | 46 | 1009.5 |
| 20260509222714 | 20 | 328 | 8.0 | 12.9 | 0.00 | 0.00 | 0.00 | 48 | 1009.3 |
| 20260509222209 | 20 | 322 | 11.3 | 12.9 | 0.00 | 0.00 | 0.00 | 47 | 1009.4 |
| 20260509221705 | 20 | 9 | 3.2 | 12.9 | 0.00 | 0.00 | 0.00 | 49 | 1009.2 |
| 20260509221202 | 20 | 36 | 9.7 | 14.5 | 0.00 | 0.00 | 0.00 | 48 | 1009.1 |
| 20260509220657 | 20 | 358 | 8.0 | 16.1 | 0.00 | 0.00 | 0.00 | 48 | 1009.3 |
| 20260509220154 | 21 | 344 | 25.7 | 32.2 | 0.00 | 0.00 | 0.00 | 46 | 1009.3 |
| 20260509215650 | 21 | 327 | 9.7 | 16.1 | 0.00 | 0.00 | 0.00 | 47 | 1009.4 |
| 20260509215147 | 21 | 335 | 14.5 | 20.9 | 0.00 | 0.00 | 0.00 | 48 | 1009.3 |
| 20260509214644 | 21 | 43 | 12.9 | 24.1 | 0.00 | 0.00 | 0.00 | 47 | 1009.2 |
| 20260509214140 | 21 | 41 | 9.7 | 16.1 | 0.00 | 0.00 | 0.00 | 47 | 1009.0 |
| 20260509213637 | 21 | 19 | 9.7 | 20.9 | 0.00 | 0.00 | 0.00 | 48 | 1009.0 |
| 20260509213133 | 20 | 351 | 12.9 | 25.7 | 0.00 | 0.00 | 0.00 | 48 | 1009.1 |
| 20260509212631 | 20 | 335 | 16.1 | 24.1 | 0.00 | 0.00 | 0.00 | 47 | 1009.2 |
| 20260509212127 | 20 | 59 | 9.7 | 27.4 | 0.00 | 0.00 | 0.00 | 47 | 1009.2 |
| 20260509211624 | 21 | 25 | 17.7 | 25.7 | 0.00 | 0.00 | 0.00 | 47 | 1009.0 |
| 20260509211120 | 21 | 22 | 11.3 | 14.5 | 0.00 | 0.00 | 0.00 | 47 | 1009.0 |
| 20260509210617 | 21 | 32 | 8.0 | 24.1 | 0.00 | 0.00 | 0.00 | 46 | 1009.0 |
| 20260509210114 | 21 | 9 | 16.1 | 29.0 | 0.00 | 0.00 | 0.00 | 46 | 1009.0 |
| 20260509205608 | 21 | 332 | 12.9 | 27.4 | 0.00 | 0.00 | 0.00 | 45 | 1008.8 |
| 20260509205103 | 21 | 335 | 24.1 | 27.4 | 0.00 | 0.00 | 0.00 | 44 | 1009.0 |
| 20260509204600 | 21 | 24 | 8.0 | 22.5 | 0.00 | 0.00 | 0.00 | 44 | 1008.9 |
| 20260509204057 | 21 | 49 | 14.5 | 16.1 | 0.00 | 0.00 | 0.00 | 44 | 1009.0 |
| 20260509203552 | 21 | 4 | 14.5 | 22.5 | 0.00 | 0.00 | 0.00 | 43 | 1008.9 |
| 20260509203051 | 21 | 356 | 9.7 | 14.5 | 0.00 | 0.00 | 0.00 | 40 | 1008.9 |
| 20260509202545 | 21 | 323 | 4.8 | 12.9 | 0.00 | 0.00 | 0.00 | 40 | 1009.0 |
| 20260509202041 | 22 | 319 | 11.3 | 16.1 | 0.00 | 0.00 | 0.00 | 38 | 1008.8 |
| 20260509201536 | 22 | 296 | 11.3 | 14.5 | 0.00 | 0.00 | 0.00 | 36 | 1008.8 |
| 20260509201034 | 22 | 358 | 14.5 | 17.7 | 0.00 | 0.00 | 0.00 | 35 | 1008.7 |
| 20260509200533 | 22 | 283 | 4.8 | 20.9 | 0.00 | 0.00 | 0.00 | 35 | 1008.9 |
| 20260509200030 | 22 | 20 | 17.7 | 22.5 | 0.00 | 0.00 | 0.00 | 34 | 1008.8 |
| 20260509195525 | 22 | 313 | 11.3 | 16.1 | 0.00 | 0.00 | 0.00 | 34 | 1008.8 |
| 20260509195020 | 22 | 354 | 16.1 | 17.7 | 0.00 | 0.00 | 0.00 | 34 | 1008.6 |
| 20260509194515 | 22 | 315 | 8.0 | 20.9 | 0.00 | 0.00 | 0.00 | 35 | 1008.7 |
| 20260509194013 | 21 | 287 | 4.8 | 12.9 | 0.00 | 0.00 | 0.00 | 33 | 1008.6 |
| 20260509193513 | 21 | 14 | 12.9 | 17.7 | 0.00 | 0.00 | 0.00 | 33 | 1008.6 |
| 20260509193010 | 21 | 292 | 8.0 | 16.1 | 0.00 | 0.00 | 0.00 | 34 | 1008.7 |
| 20260509192506 | 22 | 38 | 6.4 | 17.7 | 0.00 | 0.00 | 0.00 | 34 | 1008.6 |
| 20260509192001 | 22 | 313 | 14.5 | 22.5 | 0.00 | 0.00 | 0.00 | 33 | 1008.5 |
| 20260509191456 | 22 | 319 | 6.4 | 9.7 | 0.00 | 0.00 | 0.00 | 34 | 1008.2 |
| 20260509190952 | 22 | 351 | 8.0 | 12.9 | 0.00 | 0.00 | 0.00 | 33 | 1008.4 |
| 20260509190449 | 22 | 324 | 12.9 | 16.1 | 0.00 | 0.00 | 0.00 | 31 | 1008.1 |
| 20260509185947 | 22 | 13 | 4.8 | 12.9 | 0.00 | 0.00 | 0.00 | 32 | 1008.3 |
| 20260509185444 | 22 | 12 | 1.6 | 17.7 | 0.00 | 0.00 | 0.00 | 33 | 1008.2 |
| 20260509184941 | 22 | 299 | 6.4 | 16.1 | 0.00 | 0.00 | 0.00 | 31 | 1008.1 |
| 20260509184439 | 22 | 24 | 6.4 | 11.3 | 0.00 | 0.00 | 0.00 | 31 | 1008.2 |
| 20260509183935 | 23 | 295 | 9.7 | 11.3 | 0.00 | 0.00 | 0.00 | 30 | 1008.2 |
| 20260509183434 | 23 | 339 | 9.7 | 20.9 | 0.00 | 0.00 | 0.00 | 30 | 1008.2 |
| 20260509182931 | 23 | 344 | 11.3 | 20.9 | 0.00 | 0.00 | 0.00 | 30 | 1008.0 |
| 20260509182427 | 23 | 290 | 8.0 | 14.5 | 0.00 | 0.00 | 0.00 | 32 | 1008.0 |
| 20260509181925 | 23 | 281 | 6.4 | 11.3 | 0.00 | 0.00 | 0.00 | 30 | 1008.1 |
| 20260509181423 | 22 | 338 | 9.7 | 12.9 | 0.00 | 0.00 | 0.00 | 31 | 1007.8 |
| 20260509180920 | 22 | 259 | 6.4 | 16.1 | 0.00 | 0.00 | 0.00 | 30 | 1007.9 |
| 20260509180415 | 22 | 35 | 9.7 | 14.5 | 0.00 | 0.00 | 0.00 | 31 | 1007.8 |
| 20260509175912 | 23 | 304 | 12.9 | 20.9 | 0.00 | 0.00 | 0.00 | 31 | 1007.8 |
| 20260509175408 | 23 | 321 | 12.9 | 17.7 | 0.00 | 0.00 | 0.00 | 30 | 1007.9 |
| 20260509174905 | 23 | 348 | 17.7 | 20.9 | 0.00 | 0.00 | 0.00 | 30 | 1007.8 |
| 20260509174401 | 22 | 16 | 4.8 | 14.5 | 0.00 | 0.00 | 0.00 | 31 | 1007.6 |
| 20260509173857 | 22 | 3 | 11.3 | 20.9 | 0.00 | 0.00 | 0.00 | 32 | 1007.6 |
| 20260509173352 | 22 | 28 | 3.2 | 17.7 | 0.00 | 0.00 | 0.00 | 31 | 1007.8 |
| 20260509172849 | 22 | 333 | 8.0 | 16.1 | 0.00 | 0.00 | 0.00 | 32 | 1007.9 |
| 20260509172346 | 23 | 353 | 8.0 | 17.7 | 0.00 | 0.00 | 0.00 | 31 | 1007.9 |
| 20260509171841 | 22 | 296 | 3.2 | 11.3 | 0.00 | 0.00 | 0.00 | 34 | 1007.7 |
| 20260509171337 | 22 | 302 | 4.8 | 4.8 | 0.00 | 0.00 | 0.00 | 31 | 1007.8 |
| 20260509170833 | 22 | 31 | 6.4 | 9.7 | 0.00 | 0.00 | 0.00 | 33 | 1008.0 |
| 20260509170329 | 22 | 269 | 4.8 | 9.7 | 0.00 | 0.00 | 0.00 | 32 | 1007.9 |
| 20260509165824 | 21 | 312 | 3.2 | 11.3 | 0.00 | 0.00 | 0.00 | 34 | 1008.0 |
| 20260509165319 | 22 | 333 | 6.4 | 11.3 | 0.00 | 0.00 | 0.00 | 33 | 1008.2 |
| 20260509164815 | 21 | 32 | 8.0 | 17.7 | 0.00 | 0.00 | 0.00 | 34 | 1008.2 |
| 20260509164312 | 21 | 345 | 9.7 | 16.1 | 0.00 | 0.00 | 0.00 | 31 | 1008.4 |
| 20260509163808 | 22 | 324 | 8.0 | 9.7 | 0.00 | 0.00 | 0.00 | 32 | 1008.3 |
| 20260509163304 | 21 | 13 | 12.9 | 22.5 | 0.00 | 0.00 | 0.00 | 33 | 1008.3 |
| 20260509162803 | 21 | 259 | 14.5 | 22.5 | 0.00 | 0.00 | 0.00 | 32 | 1008.3 |
| 20260509162256 | 21 | 315 | 4.8 | 12.9 | 0.00 | 0.00 | 0.00 | 33 | 1008.3 |
| 20260509161753 | 21 | 45 | 11.3 | 24.1 | 0.00 | 0.00 | 0.00 | 33 | 1008.1 |
| 20260509161249 | 21 | 338 | 6.4 | 20.9 | 0.00 | 0.00 | 0.00 | 35 | 1008.0 |
| 20260509160744 | 20 | 332 | 12.9 | 22.5 | 0.00 | 0.00 | 0.00 | 33 | 1008.0 |
| 20260509160241 | 20 | 26 | 12.9 | 25.7 | 0.00 | 0.00 | 0.00 | 34 | 1008.2 |
| 20260509155736 | 20 | 316 | 12.9 | 25.7 | 0.00 | 0.00 | 0.00 | 34 | 1008.1 |
| 20260509155228 | 20 | 313 | 11.3 | 25.7 | 0.00 | 0.00 | 0.00 | 35 | 1008.0 |
| 20260509154724 | 20 | 326 | 8.0 | 24.1 | 0.00 | 0.00 | 0.00 | 34 | 1008.1 |
| 20260509154221 | 20 | 295 | 11.3 | 14.5 | 0.00 | 0.00 | 0.00 | 34 | 1008.0 |